Location: *
(58.7167°N, 26.1833°E)
Time: 16:06:24
(UTC+00:00)

Cosmos 372 Rocket - Pass Details

Date: 25 August 2019
Orbit: 738 x 769 km, 74.1° (Epoch: 22 September)

Event Time Altitude Azimuth Distance (km) Brightness Sun altitude
Exits shadow 20:16:01 - 206° (SSW) 2,494 6.3 -16.4°
Reaches altitude 10° 20:16:32 10° 206° (SSW) 2,288 6.1 -16.5°
Maximum altitude 20:21:45 84° 119° (ESE) 776 3.9 -16.8°
Drops below altitude 10° 20:27:02 10° 32° (NNE) 2,320 6.9 -17.1°
Sets 20:29:25 0° 32° (NNE) 3,252 7.7 -17.3°
